Location: Newark
(21.1200°N, 73.4000°E)
Time: 15:22:02
(UTC+00:00)

Explorer 11/Cluster Stage 4 - Pass Details

Date: 23 January 2020
Orbit: 467 x 1259 km, 28.8° (Epoch: 26 February)

Event Time Altitude Azimuth Distance (km) Brightness Sun altitude
Rises 10:34:44 0° 269° (W) 4,175 11.1 27.0°
Reaches altitude 10° 10:37:52 10° 274° (W) 3,165 10.6 26.5°
Maximum altitude 10:45:36 52° 349° (NNW) 1,350 7.9 25.0°
Drops below altitude 10° 10:52:11 10° 64° (ENE) 2,708 8.8 23.7°
Sets 10:54:41 0° 70° (ENE) 3,536 9.4 23.2°
